Time,TemperatureF,DewpointF,PressureIn,WindDirection,WindDirectionDegrees,WindSpeedMPH,WindSpeedGustMPH,Humidity,HourlyPrecipIn,Conditions,Clouds,dailyrainin,SoftwareType,DateUTC
2013-02-03 00:03:00,20.0,18.0,30.01,SW,236,0.0,-999.0,90,-99.99,,,-99.99,,2013-02-03 05:03:00,
2013-02-03 00:12:00,20.0,18.0,30.01,SW,236,0.0,-999.0,90,-99.99,,,-99.99,,2013-02-03 05:12:00,
2013-02-03 00:22:00,20.0,18.0,30.00,SW,236,0.0,-999.0,90,-99.99,,,-99.99,,2013-02-03 05:22:00,
2013-02-03 00:32:00,20.0,18.0,30.00,SW,236,0.0,-999.0,90,-99.99,,,-99.99,,2013-02-03 05:32:00,
2013-02-03 00:42:00,20.0,18.0,30.00,SW,236,0.0,-999.0,90,-99.99,,,-99.99,,2013-02-03 05:42:00,
2013-02-03 00:52:00,20.0,18.0,29.99,SW,236,0.0,-999.0,90,-99.99,,,-99.99,,2013-02-03 05:52:00,
2013-02-03 01:02:00,20.0,18.0,29.99,SW,236,0.0,-999.0,90,-99.99,,,-99.99,,2013-02-03 06:02:00,
2013-02-03 01:11:00,20.0,18.0,29.99,SW,236,0.0,-999.0,90,-99.99,,,-99.99,,2013-02-03 06:11:00,
2013-02-03 01:21:00,20.0,18.0,29.98,SW,236,0.0,-999.0,90,-99.99,,,-99.99,,2013-02-03 06:21:00,
2013-02-03 01:32:00,20.0,18.0,29.97,SW,236,0.0,-999.0,90,-99.99,,,-99.99,,2013-02-03 06:32:00,
2013-02-03 01:42:00,20.0,18.0,29.97,SW,236,0.0,-999.0,90,-99.99,,,-99.99,,2013-02-03 06:42:00,
2013-02-03 01:52:00,19.0,17.0,29.97,SW,236,0.0,-999.0,90,-99.99,,,-99.99,,2013-02-03 06:52:00,
2013-02-03 02:02:00,18.0,16.0,29.96,SW,236,0.0,-999.0,90,-99.99,,,-99.99,,2013-02-03 07:02:00,
2013-02-03 02:11:00,18.0,16.0,29.96,SW,236,0.0,-999.0,90,-99.99,,,-99.99,,2013-02-03 07:11:00,
2013-02-03 02:21:00,18.0,16.0,29.96,SW,236,0.0,-999.0,91,-99.99,,,-99.99,,2013-02-03 07:21:00,
2013-02-03 02:32:00,18.0,16.0,29.96,SW,236,0.0,-999.0,91,-99.99,,,-99.99,,2013-02-03 07:32:00,
2013-02-03 02:42:00,18.0,16.0,29.96,SW,236,0.0,-999.0,91,-99.99,,,-99.99,,2013-02-03 07:42:00,
2013-02-03 02:52:00,18.0,16.0,29.95,SW,236,0.0,-999.0,91,-99.99,,,-99.99,,2013-02-03 07:52:00,
2013-02-03 03:02:00,17.0,15.0,29.94,SW,236,0.0,-999.0,91,-99.99,,,-99.99,,2013-02-03 08:02:00,
2013-02-03 03:11:00,17.0,15.0,29.94,SW,236,0.0,-999.0,91,-99.99,,,-99.99,,2013-02-03 08:11:00,
2013-02-03 03:22:00,17.0,15.0,29.93,SW,236,0.0,-999.0,91,-99.99,,,-99.99,,2013-02-03 08:22:00,
2013-02-03 03:32:00,17.0,15.0,29.93,SW,236,0.0,-999.0,91,-99.99,,,-99.99,,2013-02-03 08:32:00,
2013-02-03 03:41:00,17.0,15.0,29.93,SW,236,0.0,-999.0,91,-99.99,,,-99.99,,2013-02-03 08:41:00,
2013-02-03 03:52:00,16.0,14.0,29.92,SW,236,0.0,-999.0,91,-99.99,,,-99.99,,2013-02-03 08:52:00,
2013-02-03 04:03:00,17.0,15.0,29.91,SW,236,0.0,-999.0,92,-99.99,,,-99.99,,2013-02-03 09:03:00,
2013-02-03 04:11:00,17.0,15.0,29.91,SW,236,0.0,-999.0,92,-99.99,,,-99.99,,2013-02-03 09:11:00,
2013-02-03 04:21:00,18.0,16.0,29.91,SW,236,0.0,-999.0,92,-99.99,,,-99.99,,2013-02-03 09:21:00,
2013-02-03 04:32:00,18.0,16.0,29.91,SW,236,0.0,-999.0,92,-99.99,,,-99.99,,2013-02-03 09:32:00,
2013-02-03 04:42:00,18.0,16.0,29.91,SW,236,0.0,-999.0,92,-99.99,,,-99.99,,2013-02-03 09:42:00,
2013-02-03 04:51:00,19.0,17.0,29.90,SW,236,0.0,-999.0,92,-99.99,,,-99.99,,2013-02-03 09:51:00,
2013-02-03 05:01:00,18.0,16.0,29.90,SW,236,0.0,-999.0,92,-99.99,,,-99.99,,2013-02-03 10:01:00,
2013-02-03 05:11:00,18.0,16.0,29.90,SW,236,0.0,-999.0,92,-99.99,,,-99.99,,2013-02-03 10:11:00,
2013-02-03 05:21:00,19.0,17.0,29.89,SW,236,0.0,-999.0,92,-99.99,,,-99.99,,2013-02-03 10:21:00,
2013-02-03 05:32:00,19.0,17.0,29.89,SW,236,0.0,-999.0,92,-99.99,,,-99.99,,2013-02-03 10:32:00,
2013-02-03 05:42:00,19.0,17.0,29.89,SW,236,0.0,-999.0,92,-99.99,,,-99.99,,2013-02-03 10:42:00,
2013-02-03 05:52:00,19.0,17.0,29.89,SW,236,0.0,-999.0,92,-99.99,,,-99.99,,2013-02-03 10:52:00,
2013-02-03 06:02:00,19.0,17.0,29.89,SW,236,0.0,-999.0,92,-99.99,,,-99.99,,2013-02-03 11:02:00,
2013-02-03 06:11:00,19.0,17.0,29.89,SW,236,0.0,-999.0,92,-99.99,,,-99.99,,2013-02-03 11:11:00,
2013-02-03 06:22:00,19.0,17.0,29.89,SW,236,0.0,-999.0,92,-99.99,,,-99.99,,2013-02-03 11:22:00,
2013-02-03 06:32:00,19.0,17.0,29.89,SW,236,0.0,-999.0,91,-99.99,,,-99.99,,2013-02-03 11:32:00,
2013-02-03 06:42:00,19.0,17.0,29.89,SW,236,0.0,-999.0,91,-99.99,,,-99.99,,2013-02-03 11:42:00,
2013-02-03 06:52:00,19.0,17.0,29.89,SW,236,0.0,-999.0,91,-99.99,,,-99.99,,2013-02-03 11:52:00,
2013-02-03 07:02:00,19.0,17.0,29.89,SW,236,0.0,-999.0,91,-99.99,,,-99.99,,2013-02-03 12:02:00,
2013-02-03 07:12:00,19.0,17.0,29.89,SW,236,0.0,-999.0,91,-99.99,,,-99.99,,2013-02-03 12:12:00,
2013-02-03 07:22:00,19.0,17.0,29.89,East,101,0.0,-999.0,91,-99.99,,,-99.99,,2013-02-03 12:22:00,
2013-02-03 07:32:00,18.0,16.0,29.90,East,101,0.0,-999.0,91,-99.99,,,-99.99,,2013-02-03 12:32:00,
2013-02-03 07:42:00,18.0,16.0,29.90,East,101,0.0,-999.0,91,-99.99,,,-99.99,,2013-02-03 12:42:00,
2013-02-03 07:53:00,18.0,16.0,29.90,East,101,0.0,-999.0,91,-99.99,,,-99.99,,2013-02-03 12:53:00,
2013-02-03 08:03:00,18.0,16.0,29.90,ENE,65,0.0,-999.0,91,-99.99,,,-99.99,,2013-02-03 13:03:00,
2013-02-03 08:11:00,19.0,17.0,29.91,ESE,123,0.0,-999.0,91,-99.99,,,-99.99,,2013-02-03 13:11:00,
2013-02-03 08:22:00,19.0,17.0,29.91,ESE,123,0.0,-999.0,91,-99.99,,,-99.99,,2013-02-03 13:22:00,
2013-02-03 08:32:00,19.0,17.0,29.91,East,97,1.0,-999.0,90,-99.99,,,-99.99,,2013-02-03 13:32:00,
2013-02-03 08:42:00,19.0,17.0,29.91,East,97,1.0,-999.0,90,-99.99,,,-99.99,,2013-02-03 13:42:00,
2013-02-03 08:52:00,19.0,17.0,29.91,SE,138,0.0,-999.0,90,-99.99,,,-99.99,,2013-02-03 13:52:00,
2013-02-03 09:02:00,19.0,17.0,29.91,ENE,76,0.0,-999.0,90,-99.99,,,-99.99,,2013-02-03 14:02:00,
2013-02-03 09:11:00,19.0,17.0,29.91,ENE,76,0.0,-999.0,90,-99.99,,,-99.99,,2013-02-03 14:11:00,
2013-02-03 09:22:00,20.0,18.0,29.90,ENE,78,1.0,-999.0,90,-99.99,,,-99.99,,2013-02-03 14:22:00,
2013-02-03 09:32:00,20.0,18.0,29.90,East,90,0.0,-999.0,90,-99.99,,,-99.99,,2013-02-03 14:32:00,
2013-02-03 09:42:00,20.0,18.0,29.90,East,90,0.0,-999.0,90,-99.99,,,-99.99,,2013-02-03 14:42:00,
2013-02-03 09:52:00,20.0,17.0,29.90,ESE,105,0.0,-999.0,89,-99.99,,,-99.99,,2013-02-03 14:52:00,
2013-02-03 10:03:00,20.0,17.0,29.90,ESE,113,0.0,-999.0,88,-99.99,,,-99.99,,2013-02-03 15:03:00,
2013-02-03 10:11:00,20.0,17.0,29.90,ESE,113,0.0,-999.0,88,-99.99,,,-99.99,,2013-02-03 15:11:00,
2013-02-03 10:22:00,20.0,17.0,29.90,NNE,31,0.0,-999.0,88,-99.99,,,-99.99,,2013-02-03 15:22:00,
2013-02-03 10:33:00,21.0,18.0,29.88,NNE,24,0.0,-999.0,87,-99.99,,,-99.99,,2013-02-03 15:33:00,
2013-02-03 10:42:00,21.0,18.0,29.88,NNE,24,0.0,-999.0,87,-99.99,,,-99.99,,2013-02-03 15:42:00,
2013-02-03 10:51:00,21.0,17.0,29.88,NNW,337,0.0,-999.0,86,-99.99,,,-99.99,,2013-02-03 15:51:00,
2013-02-03 11:03:00,21.0,17.0,29.88,NE,40,1.0,-999.0,85,-99.99,,,-99.99,,2013-02-03 16:03:00,
2013-02-03 11:11:00,21.0,17.0,29.88,NE,40,1.0,-999.0,85,-99.99,,,-99.99,,2013-02-03 16:11:00,
2013-02-03 11:22:00,22.0,18.0,29.88,North,355,1.0,-999.0,84,-99.99,,,-99.99,,2013-02-03 16:22:00,
2013-02-03 11:33:00,22.0,18.0,29.87,North,9,0.0,-999.0,84,-99.99,,,-99.99,,2013-02-03 16:33:00,
2013-02-03 11:42:00,22.0,18.0,29.87,North,9,0.0,-999.0,84,-99.99,,,-99.99,,2013-02-03 16:42:00,
2013-02-03 11:52:00,22.0,18.0,29.87,North,9,0.0,-999.0,84,-99.99,,,-99.99,,2013-02-03 16:52:00,
2013-02-03 12:03:00,23.0,18.0,29.85,NNE,19,0.0,-999.0,81,-99.99,,,-99.99,,2013-02-03 17:03:00,
2013-02-03 12:11:00,23.0,18.0,29.85,NNE,19,0.0,-999.0,81,-99.99,,,-99.99,,2013-02-03 17:11:00,
2013-02-03 12:22:00,22.0,17.0,29.84,NNE,19,0.0,-999.0,81,-99.99,,,-99.99,,2013-02-03 17:22:00,
2013-02-03 12:32:00,23.0,18.0,29.83,North,355,0.0,-999.0,81,-99.99,,,-99.99,,2013-02-03 17:32:00,
2013-02-03 12:42:00,23.0,18.0,29.83,North,355,0.0,-999.0,81,-99.99,,,-99.99,,2013-02-03 17:42:00,
2013-02-03 12:52:00,23.0,18.0,29.82,North,355,0.0,-999.0,80,-99.99,,,-99.99,,2013-02-03 17:52:00,
2013-02-03 13:03:00,23.0,18.0,29.81,NNW,329,1.0,-999.0,80,-99.99,,,-99.99,,2013-02-03 18:03:00,
2013-02-03 13:12:00,23.0,18.0,29.81,NNW,329,1.0,-999.0,80,-99.99,,,-99.99,,2013-02-03 18:12:00,
2013-02-03 13:23:00,23.0,17.0,29.80,WNW,285,1.0,-999.0,79,-99.99,,,-99.99,,2013-02-03 18:23:00,
2013-02-03 13:33:00,25.0,19.0,29.79,South,179,1.0,-999.0,79,-99.99,,,-99.99,,2013-02-03 18:33:00,
2013-02-03 13:42:00,25.0,19.0,29.79,South,179,1.0,-999.0,79,-99.99,,,-99.99,,2013-02-03 18:42:00,
2013-02-03 13:51:00,25.0,19.0,29.79,NNW,344,1.0,-999.0,77,-99.99,,,-99.99,,2013-02-03 18:51:00,
2013-02-03 14:02:00,25.0,19.0,29.78,NW,324,1.0,-999.0,77,-99.99,,,-99.99,,2013-02-03 19:02:00,
2013-02-03 14:11:00,25.0,19.0,29.78,NW,324,1.0,-999.0,77,-99.99,,,-99.99,,2013-02-03 19:11:00,
2013-02-03 14:22:00,25.0,19.0,29.77,WSW,254,1.0,-999.0,76,-99.99,,,-99.99,,2013-02-03 19:22:00,
2013-02-03 14:32:00,26.0,19.0,29.77,SW,217,2.0,-999.0,74,-99.99,,,-99.99,,2013-02-03 19:32:00,
2013-02-03 14:42:00,26.0,19.0,29.77,SW,217,2.0,-999.0,74,-99.99,,,-99.99,,2013-02-03 19:42:00,
2013-02-03 14:51:00,26.0,19.0,29.76,WSW,250,1.0,-999.0,74,-99.99,,,-99.99,,2013-02-03 19:51:00,
2013-02-03 15:02:00,26.0,19.0,29.76,WSW,250,1.0,-999.0,74,-99.99,,,-99.99,,2013-02-03 20:02:00,
2013-02-03 15:12:00,26.0,19.0,29.76,WSW,250,1.0,-999.0,74,-99.99,,,-99.99,,2013-02-03 20:12:00,
2013-02-03 15:22:00,26.0,19.0,29.76,West,263,1.0,-999.0,74,-99.99,,,-99.99,,2013-02-03 20:22:00,
2013-02-03 15:33:00,26.0,19.0,29.76,West,281,2.0,-999.0,73,-99.99,,,-99.99,,2013-02-03 20:33:00,
2013-02-03 15:42:00,26.0,19.0,29.76,West,281,2.0,-999.0,73,-99.99,,,-99.99,,2013-02-03 20:42:00,
2013-02-03 15:52:00,26.0,19.0,29.76,WNW,292,2.0,-999.0,74,-99.99,,,-99.99,,2013-02-03 20:52:00,
2013-02-03 16:03:00,25.0,18.0,29.76,WNW,302,1.0,-999.0,73,-99.99,,,-99.99,,2013-02-03 21:03:00,
2013-02-03 16:11:00,25.0,18.0,29.76,WNW,302,1.0,-999.0,73,-99.99,,,-99.99,,2013-02-03 21:11:00,
2013-02-03 16:21:00,25.0,18.0,29.76,NNW,336,2.0,-999.0,74,-99.99,,,-99.99,,2013-02-03 21:21:00,
2013-02-03 16:33:00,25.0,18.0,29.76,NNW,328,1.0,-999.0,74,-99.99,,,-99.99,,2013-02-03 21:33:00,
2013-02-03 16:42:00,25.0,18.0,29.76,NNW,328,1.0,-999.0,74,-99.99,,,-99.99,,2013-02-03 21:42:00,
2013-02-03 16:51:00,25.0,18.0,29.76,West,265,1.0,-999.0,73,-99.99,,,-99.99,,2013-02-03 21:51:00,
2013-02-03 17:02:00,25.0,17.0,29.76,West,262,1.0,-999.0,72,-99.99,,,-99.99,,2013-02-03 22:02:00,
2013-02-03 17:11:00,25.0,17.0,29.76,West,262,1.0,-999.0,72,-99.99,,,-99.99,,2013-02-03 22:11:00,
2013-02-03 17:21:00,24.0,17.0,29.76,WSW,247,0.0,-999.0,73,-99.99,,,-99.99,,2013-02-03 22:21:00,
2013-02-03 17:32:00,24.0,17.0,29.76,WSW,247,0.0,-999.0,75,-99.99,,,-99.99,,2013-02-03 22:32:00,
2013-02-03 17:42:00,24.0,17.0,29.76,WSW,247,0.0,-999.0,75,-99.99,,,-99.99,,2013-02-03 22:42:00,
2013-02-03 17:51:00,24.0,18.0,29.76,WSW,247,0.0,-999.0,77,-99.99,,,-99.99,,2013-02-03 22:51:00,
2013-02-03 18:01:00,23.0,17.0,29.76,WSW,247,0.0,-999.0,78,-99.99,,,-99.99,,2013-02-03 23:01:00,
2013-02-03 18:12:00,23.0,17.0,29.76,WSW,247,0.0,-999.0,78,-99.99,,,-99.99,,2013-02-03 23:12:00,
2013-02-03 18:22:00,22.0,17.0,29.76,WSW,247,0.0,-999.0,80,-99.99,,,-99.99,,2013-02-03 23:22:00,
2013-02-03 18:32:00,22.0,16.0,29.76,WSW,247,0.0,-999.0,79,-99.99,,,-99.99,,2013-02-03 23:32:00,
2013-02-03 18:42:00,22.0,16.0,29.76,WSW,247,0.0,-999.0,79,-99.99,,,-99.99,,2013-02-03 23:42:00,
2013-02-03 18:52:00,21.0,16.0,29.76,WSW,247,0.0,-999.0,79,-99.99,,,-99.99,,2013-02-03 23:52:00,
2013-02-03 19:02:00,21.0,16.0,29.77,WSW,247,0.0,-999.0,79,-99.99,,,-99.99,,2013-02-04 00:02:00,
2013-02-03 19:11:00,21.0,16.0,29.77,WSW,247,0.0,-999.0,79,-99.99,,,-99.99,,2013-02-04 00:11:00,
2013-02-03 19:22:00,21.0,16.0,29.77,WSW,247,0.0,-999.0,81,-99.99,,,-99.99,,2013-02-04 00:22:00,
2013-02-03 19:32:00,21.0,16.0,29.78,West,271,0.0,-999.0,81,-99.99,,,-99.99,,2013-02-04 00:32:00,
2013-02-03 19:42:00,21.0,16.0,29.78,West,271,0.0,-999.0,81,-99.99,,,-99.99,,2013-02-04 00:42:00,
2013-02-03 19:51:00,21.0,16.0,29.77,WSW,247,0.0,-999.0,81,-99.99,,,-99.99,,2013-02-04 00:51:00,
2013-02-03 20:01:00,20.0,15.0,29.77,WSW,247,0.0,-999.0,82,-99.99,,,-99.99,,2013-02-04 01:01:00,
2013-02-03 20:11:00,20.0,15.0,29.77,WSW,247,0.0,-999.0,82,-99.99,,,-99.99,,2013-02-04 01:11:00,
2013-02-03 20:21:00,20.0,16.0,29.78,WSW,247,0.0,-999.0,83,-99.99,,,-99.99,,2013-02-04 01:21:00,
2013-02-03 20:32:00,20.0,16.0,29.77,WSW,247,0.0,-999.0,83,-99.99,,,-99.99,,2013-02-04 01:32:00,
2013-02-03 20:42:00,20.0,16.0,29.77,WSW,247,0.0,-999.0,83,-99.99,,,-99.99,,2013-02-04 01:42:00,
2013-02-03 20:52:00,20.0,16.0,29.77,WSW,247,0.0,-999.0,84,-99.99,,,-99.99,,2013-02-04 01:52:00,
2013-02-03 21:02:00,20.0,16.0,29.77,WSW,247,0.0,-999.0,84,-99.99,,,-99.99,,2013-02-04 02:02:00,
2013-02-03 21:11:00,20.0,16.0,29.77,WSW,247,0.0,-999.0,84,-99.99,,,-99.99,,2013-02-04 02:11:00,
2013-02-03 21:21:00,19.0,15.0,29.78,WSW,247,0.0,-999.0,85,-99.99,,,-99.99,,2013-02-04 02:21:00,
2013-02-03 21:32:00,18.0,14.0,29.78,WSW,247,0.0,-999.0,85,-99.99,,,-99.99,,2013-02-04 02:32:00,
2013-02-03 21:42:00,18.0,14.0,29.78,WSW,247,0.0,-999.0,85,-99.99,,,-99.99,,2013-02-04 02:42:00,
2013-02-03 21:52:00,19.0,16.0,29.77,WSW,253,0.0,-999.0,87,-99.99,,,-99.99,,2013-02-04 02:52:00,
2013-02-03 22:02:00,20.0,17.0,29.76,WSW,255,0.0,-999.0,87,-99.99,,,-99.99,,2013-02-04 03:02:00,
2013-02-03 22:11:00,20.0,17.0,29.76,WSW,255,0.0,-999.0,87,-99.99,,,-99.99,,2013-02-04 03:11:00,
2013-02-03 22:21:00,20.0,17.0,29.76,WSW,255,0.0,-999.0,87,-99.99,,,-99.99,,2013-02-04 03:21:00,
2013-02-03 22:32:00,20.0,17.0,29.76,SSW,212,0.0,-999.0,87,-99.99,,,-99.99,,2013-02-04 03:32:00,
2013-02-03 22:42:00,20.0,17.0,29.76,SSW,212,0.0,-999.0,87,-99.99,,,-99.99,,2013-02-04 03:42:00,
2013-02-03 22:51:00,20.0,17.0,29.77,SW,219,0.0,-999.0,87,-99.99,,,-99.99,,2013-02-04 03:51:00,
2013-02-03 23:01:00,21.0,18.0,29.77,WSW,243,1.0,-999.0,88,-99.99,,,-99.99,,2013-02-04 04:01:00,
2013-02-03 23:11:00,21.0,18.0,29.77,WSW,243,1.0,-999.0,88,-99.99,,,-99.99,,2013-02-04 04:11:00,
2013-02-03 23:21:00,22.0,19.0,29.76,SW,230,0.0,-999.0,88,-99.99,,,-99.99,,2013-02-04 04:21:00,
2013-02-03 23:32:00,21.0,18.0,29.76,WNW,300,0.0,-999.0,88,-99.99,,,-99.99,,2013-02-04 04:32:00,
2013-02-03 23:42:00,21.0,18.0,29.76,WNW,300,0.0,-999.0,88,-99.99,,,-99.99,,2013-02-04 04:42:00,
2013-02-03 23:52:00,21.0,18.0,29.76,West,277,1.0,-999.0,88,-99.99,,,-99.99,,2013-02-04 04:52:00,